CW0728 Weather Reports


time (UTC)temp
C
wind
direction
speed
KPH
gust
KPH
rain 1hr
cm
rain 24hr
cm
rain mn
cm
humidity
%
barometer
mb
20260506014534 13 171 0.0 0.0 0.00 0.00 0.00 73 1007.0
20260506013008 13 145 1.6 6.4 0.00 0.00 0.00 73 1006.9
20260506011549 14 152 0.0 4.8 0.00 0.00 0.00 72 1006.8
20260506010029 15 169 0.0 8.0 0.00 0.00 0.00 69 1006.6
20260506004602 16 163 0.0 1.6 0.00 0.00 0.00 66 1006.5
20260506003040 16 158 0.0 3.2 0.00 0.00 0.00 65 1006.4
20260506001529 16 219 0.0 6.4 0.00 0.00 0.00 63 1006.1
20260506000020 17 175 0.0 6.4 0.00 0.00 0.00 64 1005.4
20260505234607 17 171 1.6 8.0 0.00 0.00 0.00 62 1005.0
20260505233030 17 157 0.0 4.8 0.00 0.00 0.00 61 1004.9
20260505231508 17 250 0.0 14.5 0.00 0.00 0.00 63 1005.4
20260505230050 16 277 3.2 17.7 0.00 0.00 0.00 67 1005.8
20260505224524 15 244 4.8 22.5 0.00 0.00 0.00 66 1003.6
20260505223011 15 219 6.4 24.1 0.00 0.00 0.00 67 1003.4
20260505221557 16 232 8.0 22.5 0.00 0.00 0.00 66 1003.2
20260505220026 16 225 9.7 27.4 0.00 0.00 0.00 65 1003.0
20260505214502 16 221 4.8 19.3 0.00 0.00 0.00 66 1003.0
20260505213042 15 167 3.2 24.1 0.00 0.00 0.00 69 1003.1
20260505211543 14 187 8.0 22.5 0.00 0.00 0.00 70 1002.9
20260505210005 15 257 6.4 22.5 0.00 0.00 0.00 68 1002.9
20260505204557 16 178 3.2 24.1 0.00 0.00 0.00 66 1002.8
20260505203021 16 215 6.4 17.7 0.00 0.00 0.00 66 1003.0
20260505201602 17 164 1.6 17.7 0.00 0.00 0.00 66 1003.0
20260505200038 16 241 4.8 24.1 0.00 0.00 0.00 66 1003.2
20260505194512 16 163 6.4 24.1 0.00 0.00 0.00 67 1003.3
20260505193053 16 109 3.2 24.1 0.00 0.00 0.00 68 1003.6
20260505191540 16 180 3.2 17.7 0.00 0.00 0.00 68 1003.9
20260505190024 16 226 3.2 16.1 0.00 0.00 0.00 68 1004.3
20260505184559 16 197 8.0 25.7 0.00 0.00 0.00 67 1004.3
20260505183038 17 226 4.8 20.9 0.00 0.00 0.00 65 1004.4
20260505181513 16 239 3.2 17.7 0.00 0.00 0.00 68 1004.3
20260505174539 15 244 6.4 20.9 0.00 0.00 0.00 68 1004.7
20260505173025 15 210 4.8 17.7 0.00 0.00 0.00 69 1004.9
20260505171505 16 251 1.6 16.1 0.00 0.00 0.00 68 1005.0
20260505170043 16 190 3.2 12.9 0.00 0.00 0.00 69 1005.5
20260505164519 16 163 3.2 14.5 0.00 0.00 0.00 68 1005.7
20260505163058 16 90 1.6 11.3 0.00 0.00 0.00 69 1005.7
20260505161534 15 240 3.2 16.1 0.00 0.00 0.00 69 1006.1
20260505153049 16 134 1.6 12.9 0.00 0.00 0.00 70 1006.7
20260505151536 15 186 3.2 11.3 0.00 0.00 0.00 73 1006.8
20260505124551 11 201 4.8 14.5 0.00 0.00 0.00 79 1006.8
20260505123032 11 188 0.0 11.3 0.00 0.00 0.00 81 1006.7
20260505121512 10 202 3.2 11.3 0.00 0.00 0.00 82 1006.9
20260505120109 10 139 1.6 12.9 0.00 0.00 0.00 84 1007.0
20260505114531 10 175 1.6 9.7 0.00 0.00 0.00 84 1007.2
20260505113019 9 155 3.2 8.0 0.00 0.00 0.00 85 1007.4
20260505111508 9 131 1.6 9.7 0.00 0.00 0.00 84 1007.3
20260505110104 9 157 0.0 8.0 0.00 0.00 0.00 84 1007.0
20260505101550 8 174 0.0 3.2 0.00 0.00 0.00 85 1007.2
20260505100032 8 135 0.0 6.4 0.00 0.00 0.00 85 1007.0
20260505094515 8 158 0.0 3.2 0.00 0.00 0.00 85 1007.2
20260505093053 7 141 0.0 4.8 0.00 0.00 0.00 85 1007.0
20260505091551 7 180 0.0 4.8 0.00 0.00 0.00 85 1007.1
20260505090022 7 150 0.0 0.0 0.00 0.00 0.00 84 1007.2
20260505084502 7 137 0.0 0.0 0.00 0.00 0.00 83 1007.3
20260505083054 8 137 0.0 1.6 0.00 0.00 0.00 82 1007.4
20260505081521 8 148 0.0 3.2 0.00 0.00 0.00 81 1007.4
20260505080058 8 158 0.0 0.0 0.00 0.00 0.00 79 1007.6
20260505074527 8 170 0.0 0.0 0.00 0.00 0.00 78 1007.5
20260505073103 9 147 0.0 3.2 0.00 0.00 0.00 77 1007.5
20260505071541 9 146 0.0 0.0 0.00 0.00 0.00 76 1007.5
20260505070018 10 146 0.0 4.8 0.00 0.00 0.00 74 1007.5
20260505064639 10 161 0.0 6.4 0.00 0.00 0.00 71 1007.3
20260505063039 11 151 0.0 4.8 0.00 0.00 0.00 67 1007.2
20260505061515 13 220 0.0 8.0 0.00 0.00 0.00 59 1007.2
20260505060053 14 235 0.0 8.0 0.00 0.00 0.00 55 1007.2
20260505054544 14 254 3.2 12.9 0.00 0.00 0.00 54 1007.1
20260505053007 14 132 0.0 14.5 0.00 0.00 0.00 53 1007.2
20260505051545 15 218 1.6 11.3 0.00 0.00 0.00 52 1007.1
20260505041534 15 254 1.6 16.1 0.00 0.00 0.00 50 1006.8
20260505040011 15 190 0.0 12.9 0.00 0.00 0.00 51 1006.6
20260505034609 15 223 4.8 19.3 0.00 0.00 0.00 52 1006.5
20260505033032 15 205 1.6 12.9 0.00 0.00 0.00 53 1006.5
20260505031506 15 265 3.2 9.7 0.00 0.00 0.00 54 1006.5
20260505030049 15 252 1.6 14.5 0.00 0.00 0.00 54 1006.6
20260505024521 14 245 1.6 12.9 0.00 0.00 0.00 57 1006.6
20260505023056 11 211 0.0 14.5 0.00 0.00 0.00 67 1006.5
20260505021536 11 142 0.0 3.2 0.00 0.00 0.00 73 1006.3
20260505020014 11 153 0.0 3.2 0.00 0.00 0.00 73 1006.2